"Pseudo-MPEC" for lMa901

Created 2022 Aug 17 5:22:26 UT using Find_Orb

Click here for an explanation of pseudo-MPECs

 
 Astrometry: 
     lMa901 *KC2022 08 10EH+$CAstrometryn]sJPbB'54x0=.redacted;\@JDlW9/f82q/@J43
     lMa901  KC2022 08 10S(j^(,cADwsU;[k5+/YQfLaRM$Z\clickx4dhLlthereRUpw,C,!J43
     lMa901  KC2022 08 10%w6d,JforLPWXo*6)f4=*VCP+v+!skxYmWV]Ba8hexplanation8J43

Station data:
(J43) Oukaïmeden Observatory, Marrakech  (N31.206438 W7.866460)  Morocco.
   Observer C. Rinner. Measurers C. Rinner, M. Ory. 0.5-m f/3 reflector + CCD.

Orbital elements:  lMa901
   Perihelion 2022 Sep 23.11601 +/- 41.8 TT =  2:47:03 (JD 2459845.61601)
Epoch 2022 Aug 10.0 TT = JDT 2459801.5   Earth MOID: 0.2694   Ma: 0.0796
M 350.23914145 +/- 18               (J2000 ecliptic)          AutoNEOCP
n   0.22125433 +/- 0.241            Peri.  151.02946 +/- 100
a   2.70733203 +/- 1.96             Node   204.09321 +/- 54
e   0.5354950 +/- 0.257             Incl.   10.64052 +/- 5.5
P   4.45                   H 21.8   G  0.15   U 11.8  SR
q 1.25756920 +/- 0.272    Q 4.15709486 +/- 60.1
From 3 observations 2022 Aug. 10 (24.0 min); mean residual 0".35
Residuals in arcseconds: 
220810 J43  .31+  .18-    220810 J43  .61-  .36+    220810 J43  .30+  .17-    

Ephemerides (geocentric):
Date (UTC) HH   RA             Dec           delta  r     elong  mag " sig PA
---- --------  ------------   ------------  ------ ------ -----  --- --------
2022 08 17 05  21 07 32.191   +21 04 49.48  .36190 1.3230 144.2 21.4  45d   7
2022 08 17 06  21 07 33.991   +21 04 58.78  .36174 1.3229 144.2 21.4  45d   7
2022 08 17 07  21 07 35.794   +21 05 07.99  .36158 1.3227 144.2 21.4  45d   7
2022 08 17 08  21 07 37.600   +21 05 17.11  .36142 1.3226 144.2 21.4  45d   7
2022 08 17 09  21 07 39.409   +21 05 26.16  .36127 1.3224 144.2 21.4  45d   7
2022 08 17 10  21 07 41.222   +21 05 35.12  .36111 1.3223 144.2 21.4  45d   7
2022 08 17 11  21 07 43.038   +21 05 44.01  .36095 1.3222 144.2 21.4  45d   7
2022 08 17 12  21 07 44.857   +21 05 52.80  .36080 1.3220 144.2 21.4  46d   7
2022 08 17 13  21 07 46.680   +21 06 01.52  .36064 1.3219 144.2 21.4  46d   7
2022 08 17 14  21 07 48.506   +21 06 10.15  .36048 1.3217 144.2 21.4  46d   7
2022 08 17 15  21 07 50.335   +21 06 18.71  .36033 1.3216 144.2 21.4  46d   7
2022 08 17 16  21 07 52.168   +21 06 27.17  .36017 1.3215 144.2 21.4  46d   7
2022 08 17 17  21 07 54.004   +21 06 35.56  .36002 1.3213 144.2 21.4  46d   7
2022 08 17 18  21 07 55.844   +21 06 43.86  .35986 1.3212 144.2 21.4  46d   7
2022 08 17 19  21 07 57.687   +21 06 52.08  .35970 1.3210 144.2 21.4  46d   7
2022 08 17 20  21 07 59.534   +21 07 00.22  .35955 1.3209 144.2 21.4  46d   7
2022 08 17 21  21 08 01.384   +21 07 08.27  .35939 1.3208 144.2 21.4  46d   7
2022 08 17 22  21 08 03.237   +21 07 16.24  .35924 1.3206 144.2 21.4  46d   7
2022 08 17 23  21 08 05.094   +21 07 24.13  .35908 1.3205 144.2 21.4  46d   7
2022 08 18 00  21 08 06.954   +21 07 31.94  .35893 1.3203 144.2 21.4  46d   7
2022 08 18 01  21 08 08.818   +21 07 39.66  .35877 1.3202 144.2 21.4  46d   7
2022 08 18 02  21 08 10.685   +21 07 47.29  .35862 1.3201 144.2 21.4  46d   7
2022 08 18 03  21 08 12.556   +21 07 54.85  .35847 1.3199 144.2 21.4  46d   7
2022 08 18 04  21 08 14.430   +21 08 02.32  .35831 1.3198 144.2 21.4  46d   7
2022 08 18 05  21 08 16.308   +21 08 09.70  .35816 1.3196 144.2 21.4  46d   7
2022 08 18 06  21 08 18.189   +21 08 17.01  .35800 1.3195 144.2 21.4  46d   7
2022 08 18 07  21 08 20.074   +21 08 24.23  .35785 1.3194 144.2 21.4  46d   7
2022 08 18 08  21 08 21.962   +21 08 31.36  .35770 1.3192 144.2 21.4  46d   7
2022 08 18 09  21 08 23.854   +21 08 38.41  .35754 1.3191 144.2 21.4  46d   7
2022 08 18 10  21 08 25.749   +21 08 45.38  .35739 1.3189 144.3 21.4  46d   7
2022 08 18 11  21 08 27.648   +21 08 52.26  .35724 1.3188 144.3 21.4  46d   7
2022 08 18 12  21 08 29.551   +21 08 59.06  .35708 1.3187 144.3 21.4  46d   7
2022 08 18 13  21 08 31.457   +21 09 05.77  .35693 1.3185 144.3 21.4  46d   7
2022 08 18 14  21 08 33.366   +21 09 12.40  .35678 1.3184 144.3 21.4  46d   7
2022 08 18 15  21 08 35.279   +21 09 18.95  .35662 1.3183 144.3 21.4  46d   7
2022 08 18 16  21 08 37.196   +21 09 25.41  .35647 1.3181 144.3 21.4  46d   7
2022 08 18 17  21 08 39.116   +21 09 31.78  .35632 1.3180 144.3 21.4  46d   7
2022 08 18 18  21 08 41.040   +21 09 38.07  .35617 1.3179 144.3 21.4  46d   7
2022 08 18 19  21 08 42.968   +21 09 44.28  .35602 1.3177 144.3 21.4  46d   7
2022 08 18 20  21 08 44.899   +21 09 50.40  .35586 1.3176 144.3 21.4  46d   7
2022 08 18 21  21 08 46.833   +21 09 56.44  .35571 1.3174 144.3 21.4  46d   7
2022 08 18 22  21 08 48.772   +21 10 02.39  .35556 1.3173 144.3 21.4  46d   7
2022 08 18 23  21 08 50.714   +21 10 08.25  .35541 1.3172 144.3 21.4  46d   7
2022 08 19 00  21 08 52.660   +21 10 14.04  .35526 1.3170 144.3 21.4  46d   7
2022 08 19 01  21 08 54.609   +21 10 19.73  .35511 1.3169 144.3 21.4  46d   7
2022 08 19 02  21 08 56.562   +21 10 25.34  .35496 1.3168 144.3 21.4  46d   7
2022 08 19 03  21 08 58.519   +21 10 30.87  .35480 1.3166 144.3 21.4  46d   7
2022 08 19 04  21 09 00.479   +21 10 36.31  .35465 1.3165 144.3 21.4  46d   7